www.pogodaiklimat.ru

Погода и климат >> Архив погоды >> Гренландия >> Mittarfik Upernavik


ПОГОДА в Mittarfik Upernavik

  • Прогноз погоды в Mittarfik Upernavik
  • Монитор погоды в Mittarfik Upernavik

АРХИВ ПОГОДЫ в Mittarfik Upernavik

Время (UTC), дата Ветер
(напр.,м/с)
 
Видим.   Явления Облачность Т
(С)
Тd
(С)
f
(%)
Тe
(С)
Тes
(С)
Комфортность P
(гПа)
Po
(гПа)
Тmin
(С)
Tmax
(С)
R
(мм)
R24
(мм)
S
(см)
01 9.09 Ю 11 29 км {ливн. осадки} 9/9 540 м
[]
+3.9 +0.1 76
02 9.09 Ю 10 35 км {ливн. осадки} 9/9 450 м
[]
+3.7 +0.7 81
03 9.09 Ю 11 2600 м слаб. ливневой дождь 9/9 570 м
[]
+3.4 +1.1 85
04 9.09 Ю 7 4600 м слаб. ливневой дождь 10/10 500 м
[]
+3.8 +1.2 83
05 9.09 Ю 6 13 км слаб. ливневой дождь 10/10 750 м
[]
+3.7 +0.9 82
06 9.09 Ю 8 23 км ливневой дождь 9/9 540 м
[]
+3.7 +0.7 81 +3.1 +5.3
07 9.09 ЮВ 4 30 км ливневой дождь 10/10 540 м
[]
+3.7 +0.7 81
08 9.09 ЮВ 6 23 км ливневой дождь 10/10 800 м
[]
+3.6 +0.8 82
09 9.09 ЮВ 4 40 км в посл. час морось {ливн. осадки} 10/10 840 м
[]
+3.6 +1.0 83
10 9.09 ЮВ 2 40 км {ливн. осадки} 10/10 720 м
[]
+3.7 +1.1 83
11 9.09 СВ 1 45 км 10/10 1380 м
[]
+3.9 -0.1 75 +3 +3 1010.0 994.4
12 9.09 В 2 27 км слаб. ливневой дождь {морось} 10/0
[]
+3.8 +1.2 83 +1 +2 1009.6 993.9
13 9.09 В 3 40 км {ливн. осадки} 10/0
[]
+3.8 +1.3 84 0 +1 1008.9 993.2
14 9.09 В 3 40 км {ливн. осадки} 10/0
[]
+4.0 +1.0 81 0 +1 1008.1 992.5
15 9.09 В 3 45 км {ливн. осадки} 10/0
[]
+4.2 +1.2 81 +1 +2 1007.6 992.0
16 9.09 В 3 40 км {ливн. осадки} 10/0
[]
+4.1 +0.3 76 +1 +2 1006.9 991.4
17 9.09 В 2 45 км {ливн. осадки} 9/0
[]
+4.2 +0.4 76 +2 +4 1006.1 990.5
18 9.09 С 2 28 км 10/0
[]
+4.6 -0.5 69 +2 +3 1005.5 990.0 +3.7 +4.8
19 9.09 С 2 35 км 10/0
[]
+4.5 -0.6 69 +2 +3 1004.8 989.3
20 9.09 С 3 30 км 9/0
[]
+4.2 -1.8 65 +1 +1 1004.2 988.7
21 9.09 С 3 40 км 10/0
[]
+4.1 +0.5 77 +1 +1 1003.9 988.4
22 9.09 СВ 4 40 км 10/0
[]
+3.8 -1.0 71 -1 -1 1003.4 987.9
23 9.09 С 3 35 км 10/0
[]
+3.3 -1.3 72 0 0 1003.0 987.4
00 10.09 СВ 2 35 км 10/0
[]
+3.0 -1.6 72 +1 +1 1002.6 987.1
01 10.09 СВ 2 45 км 10/0
[]
+3.0 -2.7 66 0 0 1002.2 986.6
02 10.09 СВ 2 35 км 10/0
[]
+2.9 -3.9 61 +1 +1 1001.7 986.2
03 10.09 В 1 35 км 10/0
[]
+2.6 -1.8 73 +1 +1 1001.5 986.0
04 10.09 СВ 1 50 км 10/0
[]
+2.3 -2.1 73 +1 +1 1001.3 985.8
05 10.09 В 1 50 км 10/0
[]
+2.3 -2.3 72 +1 +1 1001.4 985.8
06 10.09 В 1 35 км 9/0
[]
+2.4 -2.4 71 +1 +1 1001.3 985.7 +2.2 +4.8
07 10.09 ЮВ 1 30 км 10/0
[]
+2.8 -2.4 69 +1 +1 1001.4 985.8
08 10.09 ЮВ 1 40 км 10/0 2000 м
[]
+2.6 -1.2 76 +2 +2 1001.7 986.1
09 10.09 Ю 1 45 км 9/9 570 м
[]
+2.9 -1.1 75 +3 +3 1001.8 986.3
10 10.09 ЮЗ 2 40 км 9/9 570 м
[]
+3.1 +0.1 81 +1 +1 1002.1 986.5
11 10.09 В 2 45 км 9/9 480 м
[]
+2.9 -0.3 79 +1 +1 1002.5 986.9
12 10.09 ЮЗ 2 30 км слаб. морось 10/0
[]
+3.3 -0.1 78 +1 +2 1002.8 987.2
13 10.09 ЮЗ 6 28 км в посл. час осадки {ливн. осадки} 10/10 1500 м
[]
+4.4 +1.2 80 -1 -1 1002.8 987.4
14 10.09 ЮЗ 7 28 км {ливн. осадки} 10/0 2000 м
[]
+3.9 +1.3 83 -2 -1 1003.1 987.6
15 10.09 ЮЗ 6 35 км в посл. час морось {ливн. осадки} 10/10 480 м
[]
+3.9 +0.9 81 -1 -1 1003.5 988.0
16 10.09 ЮЗ 6 19 км ливневой дождь 9/9 480 м
[]
+3.3 +0.5 82 -2 -2 1003.7 988.1
17 10.09 ЮЗ 8 45 км {ливн. осадки} 10/10 240 м
[]
+3.2 +1.1 86 -3 -3 1003.9 988.4
18 10.09 ЮЗ 8 40 км 10/10 1500 м
[]
+3.1 +0.5 83 -3 -3 1004.1 988.5 +2.4 +4.4
19 10.09 ЮЗ 8 22 км слаб. морось 10/10 1500 м
[]
+2.9 +0.6 85 -4 -4 1004.4 988.8
20 10.09 ЮЗ 9 30 км в посл. час морось {ливн. осадки} 10/10 1170 м
[]
+3.4 +0.2 80 -3 -3 1004.5 989.0
21 10.09 ЮЗ 8 35 км {ливн. осадки, морось} 9/9 240 м
[]
+3.1 +1.2 87 -3 -3 1005.0 989.4
22 10.09 ЮЗ 8 35 км {ливн. осадки, морось} 9/9 270 м
[]
+2.8 +1.1 89 -4 -4 1005.3 989.7
23 10.09 ЮЗ 8 40 км {ливн. осадки, морось} 9/9 1300 м
[]
+2.4 +0.3 86 -4 -4 1005.2 989.5
00 11.09 Ю 7
{12}
30 км 10/10 750 м
[]
+2.8 -0.8 77 -3 -3 1005.4 989.8
01 11.09 Ю 6 26 км слаб. ливневой дождь 10/10 420 м
[]
+2.4 0.0 84 -3 -3 1005.5 989.9
02 11.09 Ю 6 45 км {ливн. осадки, дождь} 10/10 630 м
[]
+2.6 -0.6 79 -3 -3 1005.4 989.8
03 11.09 ЮЗ 9 22 км {ливн. осадки, дождь} 10/10 630 м
[]
+2.2 -0.2 84 -5 -5 1005.5 989.8
04 11.09 ЮЗ 8 40 км {ливн. осадки, дождь} 10/10 600 м
[]
+2.1 -0.1 85 -5 -5 1005.7 990.0
05 11.09 Ю 7 23 км слаб. морось {дождь} 10/10 500 м
[]
+2.4 -0.4 82 -4 -4 1005.6 990.0
06 11.09 ЮЗ 7 16 км в посл. час осадки {ливн. осадки, морось} 8/8 330 м
[]
+2.3 +0.2 86 -4 -4 1005.6 989.9 +1.9 +3.6
07 11.09 ЮЗ 7 22 км слаб. ливневой дождь 10/10 540 м
[]
+2.5 +0.1 84 -4 -4 1006.0 990.3
08 11.09 ЮЗ 7 45 км {ливн. осадки} 10/10 750 м
[]
+2.4 -0.4 82 -4 -4 1006.1 990.5
09 11.09 ЮЗ 4 40 км слаб. морось 10/10 600 м
[]
+2.7 -0.3 81 -2 -2 1006.3 990.6
10 11.09 Ю 3 30 км слаб. ливневой дождь 10/10 630 м
[]
+2.6 -0.2 82 -2 -2 1006.5 990.9
11 11.09 ЮЗ 6 22 км {ливн. осадки} 10/10 330 м
[]
+2.4 0.0 84 -3 -3 1006.6 990.9
12 11.09 ЮВ 3 45 км 10/10 480 м
[]
+2.9 +0.1 82 -1 -1 1006.7 991.1
13 11.09 Ю 3 40 км 10/10 540 м
[]
+3.4 -0.2 77 0 0 1006.6 991.0
14 11.09 ЮЗ 4 40 км в посл. час морось {ливн. осадки} 10/10 1260 м
[]
+3.9 -1.6 67 0 0 1006.6 991.0
15 11.09 ЮЗ 5 40 км {ливн. осадки, морось} 10/10 1320 м
[]
+4.1 -2.1 64 -0 -0 1006.4 990.8
16 11.09 ЮЗ 5 27 км {ливн. осадки, морось} 10/10 1440 м
[]
+4.2 -2.2 63 -0 -0 1006.5 991.0
17 11.09 ЮЗ 5 30 км {ливн. осадки, морось} 10/10 1500 м
[]
+4.2 -2.2 63 -0 -0 1006.5 991.0
18 11.09 Ю 5 30 км 10/10 840 м
[]
+4.1 -2.3 63 -0 -0 1006.7 991.1 +2.1 +4.5
19 11.09 ЮЗ 4 40 км 10/0 2000 м
[]
+4.0 -2.4 63 -0 0 1006.6 991.0
20 11.09 ЮЗ 5 35 км 10/0
[]
+3.9 -2.5 63 -1 -0 1006.6 991.0
21 11.09 ЮЗ 5 30 км 9/0
[]
+3.8 -2.6 63 -1 -1 1006.6 991.1
22 11.09 ЮЗ 4 30 км 9/0
[]
+3.6 -1.9 67 -0 -0 1006.6 991.0
23 11.09 Ю 3 40 км 3/0 2000 м
[]
+3.2 -2.5 66 -0 -0 1006.7 991.1
00 12.09 ЮВ 3 40 км 9/0
[]
+2.8 -1.2 75 -1 -1 1006.7 991.1
01 12.09 ЮВ 3 40 км 5/0
[]
+2.7 -1.1 76 -1 -1 1006.5 990.9
02 12.09 ЮВ 3 35 км н/о +2.4 -1.2 77 -1 -1 1006.5 990.9
03 12.09 В 3 45 км 9/0 2000 м
[]
+2.5 -2.1 72 -1 -1 1006.5 990.8
04 12.09 ЮВ 2 45 км 9/0 2000 м
[]
+2.2 -2.2 73 -1 -1 1006.5 990.8
05 12.09 В 2 45 км 10/0
[]
+2.1 -1.8 75 -1 -1 1006.4 990.7
06 12.09 В 3 35 км 4/0
[]
+1.4 -1.9 79 -2 -2 1006.4 990.7 +1.3 +4.3
07 12.09 В 3 45 км 1/0
[]
+1.3 -2.6 75 -3 -3 1006.6 990.9
08 12.09 В 3 45 км 3/3 700 м
[]
+1.1 -3.0 74 -3 -3 1006.7 990.9
09 12.09 В 4 45 км 4/4 700 м
[]
+1.3 -2.6 75 -3 -3 1006.7 990.9
10 12.09 В 4 35 км 9/9 930 м
[]
+2.1 -2.1 74 -3 -3 1006.7 991.0
11 12.09 В 4 40 км 10/10 1000 м
[]
+2.2 -2.2 73 -2 -2 1006.9 991.2
12 12.09 З 2 40 км 9/9 540 м
[]
+2.3 -1.9 74 -1 -1 1007.2 991.5
13 12.09 В 3 45 км 9/9 900 м
[]
+2.3 -2.1 73 -1 -1 1007.2 991.5
14 12.09 В 2 40 км 9/9 870 м
[]
+2.4 -2.0 73 -1 -0 1007.0 991.4
15 12.09 В 3 35 км 10/10 930 м
[]
+2.6 -1.8 73 -1 -1 1007.1 991.4
16 12.09 ЮЗ 4 45 км 10/10 900 м
[]
+3.2 -2.0 69 -1 -1 1007.0 991.4
17 12.09 ЮЗ 4 40 км 10/10 960 м
[]
+3.4 -2.3 66 -1 -1 1007.0 991.4
18 12.09 Ю 5 35 км 10/10 840 м
[]
+2.9 -1.9 71 -2 -2 1007.0 991.3 +0.9 +3.6
19 12.09 ЮЗ 5 35 км 10/10 750 м
[]
+3.2 -2.9 64 -1 -1 1007.1 991.5
20 12.09 ЮЗ 6 35 км 10/10 660 м
[]
+2.7 -2.5 69 -3 -3 1007.4 991.7
21 12.09 ЮЗ 6 35 км в посл. час осадки {ливн. осадки} 10/10 600 м
[]
+2.3 -2.1 73 -4 -4 1007.4 991.7
22 12.09 ЮЗ 6 29 км {ливн. осадки, осадки} 10/10 840 м
[]
+2.0 -1.4 78 -4 -4 1007.6 991.9
23 12.09 ЮЗ 6 35 км {ливн. осадки, осадки} 9/9 660 м
[]
+1.7 -1.1 82 -4 -4 1007.7 991.9
00 13.09 ЮЗ 6 40 км 10/10 500 м
[]
+1.8 -2.1 75 -4 -4 1007.8 992.1
01 13.09 ЮЗ 6 19 км слаб. ливневой снег 10/10 570 м
[]
+1.6 -2.3 75 -4 -4 1007.7 991.9
02 13.09 ЮЗ 6 13 км в посл. час дождь {ливн. осадки} 10/0 2000 м
[]
+1.5 -2.6 74 -4 -4 1007.7 992.0
03 13.09 ЮЗ 6 35 км в посл. час дождь {ливн. осадки} 10/10 1500 м
[]
+1.6 -3.6 68 -4 -4 1007.7 991.9
04 13.09 ЮЗ 5 13 км осадки {ливн. осадки} 10/10 630 м
[]
+1.4 -4.2 66 -4 -4 1007.7 991.9
05 13.09 Ю 3 7000 м слаб. ливневой снег 10/10 630 м
[]
+1.4 -3.1 72 -3 -3 1007.8 992.1
06 13.09 В 2 19 км снежные зёрна {ливн. осадки} 10/10 600 м
[]
+0.7 -2.1 82 -3 -3 1007.9 992.1 +0.6 +3.4
07 13.09 Ю 2 15 км снежные зёрна 10/10 1000 м
[]
+1.0 -3.5 72 -2 -2 1007.9 992.1
08 13.09 ЮВ 3 2500 м слаб. снег 10/10 480 м
[]
+0.3 -1.4 88 -4 -4 1007.8 992.0
09 13.09 ЮВ 4 3600 м слаб. ледяной дождь 10/10 120 м
[]
-0.1 -0.9 94 -6 -6 1007.9 992.1
10 13.09 ЮВ 5 2300 м слаб. ледяной дождь 10/10 120 м
[]
-0.6 -1.4 94 -7 -7 1007.9 992.0
11 13.09 ЮВ 4 4600 м слаб. снег 10/10 120 м
[]
-0.5 -1.1 96 -6 -6 1007.9 992.0
12 13.09 ЮВ 4 800 м слаб. снег 10/10 90 м
[]
-0.8 -1.3 96 -7 -7 1007.9 992.0
13 13.09 В 4 300 м слаб. снег 10/10 60 м
[]
-0.8 -1.3 96 -6 -6 1007.6 991.7
14 13.09 ЮВ 6 1800 м слаб. снег 10/10 90 м
[]
-1.4 -1.9 96 -8 -8 1007.3 991.4
15 13.09 В 4 500 м слаб. снег 10/10 60 м
[]
-1.2 -1.7 96 -7 -7 1006.9 991.1
16 13.09 В 5 5000 м слаб. снег 10/10 1230 м
[]
-1.4 -2.5 92 -8 -8 1006.5 990.6
17 13.09 В 4 23 км слаб. снег 10/10 1110 м
[]
-1.3 -3.5 85 -7 -7 1006.1 990.2
18 13.09 В 6 4700 м снежные зёрна 10/10 330 м
[]
-1.4 -3.6 85 -8 -8 1005.9 990.1 -1.8 +1.0
19 13.09 В 4 5000 м слаб. снег 10/10 400 м
[]
-0.8 -4.6 75 -6 -6 1005.6 989.8
20 13.09 В 4 17 км в посл. час снег 10/10 360 м
[]
-0.4 -5.5 68 -6 -6 1005.3 989.5
21 13.09 В 4 40 км {снег} 10/10 900 м
[]
-0.5 -6.0 66 -5 -5 1005.0 989.2
22 13.09 В 3 45 км {снег} 9/9 1000 м
[]
-0.4 -7.0 61 -5 -5 1004.8 989.0
23 13.09 СВ 3 45 км {снег} 3/3 1170 м
[]
-0.9 -7.3 62 -5 -5 1004.7 988.9
00 14.09 СВ 2 35 км н/о -0.9 -8.0 59 -4 -4 1004.5 988.7
01 14.09 В 2 50 км н/о -1.3 -7.9 61 -4 -4 1004.0 988.2
02 14.09 В 1 35 км н/о -1.2 -8.0 60 -1 -1 1003.7 987.9
03 14.09 штиль 0 45 км 5/0
[]
-1.1 -8.2 58 -2 -2 1003.4 987.6
04 14.09 В 1 45 км 9/0
[]
-0.9 -7.0 63 -1 -1 1003.2 987.4
05 14.09 В 1 35 км 5/0
[]
-1.1 -7.2 63 -1 -1 1002.9 987.1
06 14.09 В 1 50 км 10/10 1050 м
[]
-0.7 -9.3 52 -2 -2 1002.6 986.9 -1.6 -0.2
07 14.09 ЮВ 3 45 км 9/9 900 м
[]
-0.8 -9.4 52 -5 -5 1002.6 986.8
08 14.09 45 км 9/9 960 м
[]
-0.4 -10.1 48 1002.5 986.7
09 14.09 СВ 3 45 км 10/10 1000 м
[]
-0.8 -6.1 67 -5 -5 1002.3 986.5
10 14.09 СВ 3 30 км 10/10 1000 м
[]
-1.2 -5.0 75 -6 -6 1002.3 986.5
11 14.09 В 2 30 км 9/9 1140 м
[]
-0.7 -5.6 69 -4 -4 1002.2 986.4
12 14.09 В 3 40 км 10/10 1140 м
[]
-0.6 -5.1 72 -5 -5 1002.1 986.3
13 14.09 В 3 40 км 10/10 1080 м
[]
-0.4 -4.9 72 -4 -4 1002.0 986.2
14 14.09 В 2 40 км 10/10 1050 м
[]
-0.3 -6.3 64 -4 -4 1001.8 986.1
15 14.09 ЮВ 3 35 км 10/10 1110 м
[]
+0.2 -6.9 59 -4 -4 1001.7 986.0
16 14.09 ЮВ 3 45 км 10/10 1050 м
[]
+0.5 -6.4 60 -4 -4 1001.7 986.0
17 14.09 ЮВ 2 45 км 10/10 1170 м
[]
+0.5 -7.6 55 -3 -3 1001.9 986.2
18 14.09 ЮВ 3 45 км 10/10 1170 м
[]
+0.6 -7.0 57 -3 -3 1001.9 986.2 -1.2 +0.8
19 14.09 ЮВ 4 35 км 10/10 1200 м
[]
+0.8 -7.1 55 -4 -4 1002.0 986.3
20 14.09 ЮВ 4 35 км 10/10 1200 м
[]
+0.9 -7.8 52 -3 -3 1002.2 986.5
21 14.09 ЮВ 3 45 км 9/0
[]
+0.9 -7.3 54 -3 -3 1002.5 986.9
22 14.09 ЮВ 3 45 км 10/10 1300 м
[]
+1.0 -7.9 51 -2 -2 1002.8 987.2
23 14.09 ЮВ 3 40 км 10/10 1320 м
[]
+1.0 -7.4 53 -2 -2 1003.1 987.4
00 15.09 Ю 4 35 км 9/9 1440 м
[]
+1.0 -5.5 62 -3 -3 1003.4 987.7
01 15.09 Ю 7 45 км 10/10 1200 м
[]
+0.8 -3.3 74 -6 -6 1003.6 987.9
02 15.09 Ю 3 900 м слаб. снег {осадки} 10/10 420 м
[]
-0.4 -1.4 93 -5 -5 1004.3 988.5
03 15.09 ЮВ 5 45 км в посл. час снег {ливн. осадки} 10/10 720 м
[]
+0.3 -1.5 88 -6 -6 1004.3 988.6
04 15.09 Ю 3 5000 м снежные зёрна {ливн. осадки} 10/10 500 м
[]
+0.3 -1.5 88 -4 -4 1004.6 988.9
05 15.09 Ю 7 3400 м слаб. дождь со снегом 10/10 300 м
[]
-0.3 -0.6 98 -8 -8 1004.8 989.0
06 15.09 Ю 9 2800 м слаб. снег 10/10 570 м
[]
-0.1 -1.1 93 -8 -8 1005.1 989.4 -0.7 +1.2
07 15.09 Ю 10 30 км осадки 9/9 500 м
[]
+0.8 -1.8 83 -7 -7 1005.4 989.6
08 15.09 Ю 10 11 км снежные зёрна 10/10 750 м
[]
+0.6 -1.8 84 -7 -7 1006.2 990.5
09 15.09 Ю 9 12 км слаб. ливневой снег 10/10 1200 м
[]
+0.6 -1.8 84 -7 -7 1006.8 991.0
10 15.09 Ю 8 40 км в посл. час снег {ливн. осадки} 9/9 540 м
[]
+0.8 -1.8 83 -6 -6 1007.5 991.7
11 15.09 Ю 4 35 км в посл. час снег {ливн. осадки} 9/9 500 м
[]
+1.1 -2.0 80 -4 -4 1008.2 992.4
12 15.09 Ю 5 40 км {ливн. осадки} 10/10 600 м
[]
+0.9 -2.0 81 -5 -5 1008.9 993.1
13 15.09 ЮЗ 5
{9}
27 км слаб. ливневой снег 10/10 540 м
[]
+0.8 -1.4 85 -5 -5 1009.4 993.6
14 15.09 Ю 3 2400 м слаб. снег 10/10 660 м
[]
+0.6 -1.1 88 -4 -4 1010.0 994.1
15 15.09 Ю 4
{9}
35 км в посл. час снег {ливн. осадки} 10/10 570 м
[]
+1.1 -1.3 84 -4 -4 1010.4 994.6
16 15.09 ЮВ 4 35 км в посл. час зёрна {ливн. осадки} 10/10 500 м
[]
+1.3 -0.9 85 -4 -4 1010.6 994.8
17 15.09 Ю 5 45 км {ливн. осадки, снег} 10/0
[]
+1.7 -1.3 80 -4 -3 1011.1 995.3
18 15.09 ЮВ 5
{9}
40 км 9/0
[]
+1.4 -2.5 75 -4 -4 1011.5 995.7 -0.2 +2.0
19 15.09 ЮВ 3 40 км 6/6 500 м
[]
+1.8 -1.5 79 -2 -2 1012.2 996.4
20 15.09 ЮВ 3 40 км 9/9 700 м
[]
+1.7 -2.4 74 -2 -2 1012.9 997.1
21 15.09 ЮВ 3 40 км 8/8 540 м
[]
+1.8 -2.5 73 -2 -2 1013.3 997.5
22 15.09 ЮЗ 2 30 км 9/9 600 м
[]
+1.7 -2.4 74 -1 -1 1013.8 998.0
23 15.09 Ю 1 45 км 10/10 500 м
[]
+1.6 -1.7 79 +1 +1 1014.4 998.6

 

Местоположение метеостанции Mittarfik Upernavik (Гренландия): широта 72.78 долгота -56.13 высота над уровнем моря 129 м.

В архиве по умолчанию представлена погода в Mittarfik Upernavik за последнюю неделю. Архивные данные за месяц целиком и за предыдущие месяцы, начиная с января 2011 года, Вы можете получить, выбрав интересующий диапазон дат из раскрывающегося списка и нажав кнопку "Ввод!".


*Определитесь, кто Вы:
робот инопланетянин человек

Внимание! Время в таблицах - всемирное. Для получения местного времени необходимо прибавить поправку, которая равна -3 ч.

Смотрите также архив погоды в соседних городах и на ближайших метеорологических станциях:

Погода в Kitsissorsuit (Гренландия) (149 км)
Погода в Nuussuaataa (Гренландия) (239 км)
Погода Qaarsut Mittarfia (Гренландия) (257 км)
Погода в Ilulissat (Гренландия) (435 км)
Погода в Aasiaat Mittarfia (Гренландия) (468 км)
Погода в Aasiaat (Гренландия) (469 км)
Погода в Клайд-Ривере (Нунавут, Канада) (502 км)
Погода в Клайд Ривер (Нунавут, Канада) (502 км)
Погода в Kitsissut (Гренландия) (562 км)
Погода в Summit (Гренландия) (584 км)

Пояснения к столбцам:

Ветер - указаны скорость ветра в м/с - средняя за 10 мин, порывы в срок и между сроками (в фигурных скобках) и направление, откуда дует ветер: С - северный, СВ - северо-восточный, В - восточный, ЮВ - юго-восточный, Ю - южный, ЮЗ - юго-западный, З - западный, СЗ - северо-западный.
Видимость - горизонтальная дальность видимости в метрах или километрах. При видимости от 1 до 10 км при отсутствии осадков обычно наблюдается дымка, при ухудшении видимости до 1 км и менее - туман. В сухую погоду видимость может ухудшаться дымом, пылью или мглою.
Явления - указаны атмосферные явления, наблюдавшиеся в срок или в последний час перед сроком; фигурными скобками обозначены явления, наблюдавшиеся между сроками (за 1-3 часа до срока); квадратными скобками обозначены град или гололедные отложения с указанием их диаметра в мм.
Облачность - указаны через наклонную черту общая и нижняя облачность в баллах и высота нижней границы облаков в метрах; квадратными скобками обозначены формы облаков: Ci - перистые, Cs - перисто-слоистые, Cc - перисто-кучевые, Ac - высококучевые, As - высокослоистые, Sc - слоисто-кучевые, Ns - слоисто-дождевые, Cu - кучевые, Cb - кучево-дождевые. Подробнее классификацию облаков см. в Атласе облаков (PDF).
T - Температура воздуха - температура, измеренная на высоте 2 м над землей.
Td - Температура точки росы - температура, при понижении до которой содержащийся в воздухе водяной пар достигнет насыщения.
f - Относительная влажность воздуха - влажноcть воздуха, измеренная на высоте 2 м над землей.
Te - Эффективная температура - температура, которую ощущает одетый по сезону человек в тени. Характеристика душности погоды. При расчете учитывается влияние влажности воздуха и скорости ветра на теплоощущения человека.
Tes - Эффективная температура на солнце - температура, которую ощущает человек, с поправкой на солнечный нагрев. Характеристика знойности погоды. Зависит от высоты солнца над горизонтом, облачности и скорости ветра. Ночью, в пасмурную погоду, а также при ветре 12 м/с и более поправка равна нулю.
P - Атмосферное давление - приведенное к уровню моря атмосферное давление.
Po - Атмосферное давление - измеренное на уровне метеостанции атмосферное давление.
Tmin - Минимальная температура - минимум температуры воздуха на высоте 2 м над землей.
Tmax - Максимальная температура - максимум температуры воздуха на высоте 2 м над землей.
R - Количество осадков - Количество выпавших осадков за период времени, мм. При наведении курсора мыши на число - период времени, за который выпало указанное количество осадков.
R24 - Количество осадков - Количество выпавших осадков за 24 часа, мм.
S - Снежный покров - Высота снежного покрова, см. При наведении курсора мыши на число - состояние снежного покрова и степень покрытия местности в баллах.